• Processing (Info)

  • MPEC 2009-H59 : 2009 HV58

    The following Minor Planet Electronic Circular may be linked-to from your own Web pages, but must not otherwise be redistributed electronically.

    A form allowing access to any MPEC is at the bottom of this page.


    Read MPEC 2009-H58 Read MPEC 2009-H60


    M.P.E.C. 2009-H59                                Issued 2009 Apr. 26, 22:23 UT
    
         The Minor Planet Electronic Circulars contain information on unusual
             minor planets and routine data on comets.  They are published
       on behalf of Commission 20 of the International Astronomical Union by the
              Minor Planet Center, Smithsonian Astrophysical Observatory,
                              Cambridge, MA 02138, U.S.A.
    
                 Prepared using the Tamkin Foundation Computer Network
    
                                  MPC@CFA.HARVARD.EDU
              URL http://www.cfa.harvard.edu/iau/mpc.html  ISSN 1523-6714
    
                                       2009 HV58
    
    Observations:
         K09H58V* C2009 04 25.39439 17 35 45.78 +22 12 36.6          21.7 V EH059G96
         K09H58V  C2009 04 25.40042 17 35 44.55 +22 12 27.7          21.3 V EH059G96
         K09H58V  C2009 04 25.40647 17 35 43.33 +22 12 19.7          20.5 V EH059G96
         K09H58V  C2009 04 25.41265 17 35 42.07 +22 12 11.0          20.8 V EH059G96
         K09H58V  C2009 04 25.41992 17 35 40.56 +22 12 00.3          21.3 V EH059G96
         K09H58V  C2009 04 25.42072 17 35 40.41 +22 11 59.6          21.1 V EH059G96
         K09H58V  C2009 04 25.42153 17 35 40.23 +22 11 58.5          21.3 V EH059G96
         K09H58V  C2009 04 25.42232 17 35 40.02 +22 11 57.0          21.1 V EH059G96
         K09H58V  C2009 04 25.45021 17 35 34.29 +22 11 17.8          20.9 V EH059G96
         K09H58V  C2009 04 25.45088 17 35 34.15 +22 11 16.8          21.4 V EH059G96
         K09H58V  C2009 04 25.45169 17 35 34.00 +22 11 15.5          21.0 V EH059G96
         K09H58V  C2009 04 25.45249 17 35 33.82 +22 11 14.6          21.2 V EH059G96
         K09H58V  C2009 04 25.48559 17 35 26.98 +22 10 27.3          20.7 V EH059G96
         K09H58V  C2009 04 25.48629 17 35 26.84 +22 10 26.3          20.6 V EH059G96
         K09H58V  C2009 04 25.48699 17 35 26.70 +22 10 25.2          20.4 V EH059G96
         K09H58V  C2009 04 25.48767 17 35 26.55 +22 10 24.1          20.4 V EH059G96
         K09H58V  C2009 04 26.40900 17 32 19.68 +21 48 13.7                 EH059G96
         K09H58V  C2009 04 26.41512 17 32 18.41 +21 48 04.1          21.3 V EH059G96
         K09H58V  C2009 04 26.42110 17 32 17.16 +21 47 55.8          21.3 V EH059G96
         K09H58V  C2009 04 26.42734 17 32 15.84 +21 47 46.6          21.3 V EH059G96
    
    Observer details:
    G96 Mt. Lemmon Survey.  Observers A. R. Gibbs, R. E. Hill.  Measurers
        E. C. Beshore, A. Boattini, G. J. Garradd, A. R. Gibbs, A. D. Grauer,
        R. E. Hill, R. A. Kowalski, S. M. Larson, R. H. McNaught.  1.5-m reflector
        + CCD.
    
    Orbital elements:
    2009 HV58                                                Earth MOID = 0.0626 AU
    Epoch 2009 June 18.0 TT = JDT 2455000.5                 MPC
    M  49.73037              (2000.0)            P               Q
    n   0.33833157     Peri.   49.41054     -0.30430808     -0.68435872
    a   2.0397379      Node    71.23408     +0.51393109     -0.70362714
    e   0.6095857      Incl.   44.41173     +0.80204204     +0.19121189
    P   2.91           H   19.5           G   0.15           U   9
    Residuals in seconds of arc
    090425 G96  0.4-  0.0     090425 G96  0.4-  0.2-    090425 G96  0.0   0.1-
    090425 G96  0.3-  0.4-    090425 G96  0.0   0.1+    090425 G96  0.1-  0.2-
    090425 G96  0.1+  0.1+    090425 G96  0.1-  0.1+    090426 G96  0.1-  0.3+
    090425 G96  0.3+  0.2+    090425 G96  0.2+  0.1-    090426 G96  0.1+  0.4-
    090425 G96  0.2+  0.3-    090425 G96  0.0   0.2+    090426 G96  0.1+  0.1+
    090425 G96  0.4+  0.2+    090425 G96  0.1-  0.0     090426 G96  0.1-  0.0
    090425 G96  0.2+  0.2+    090425 G96  0.0   0.0
    
    Ephemeris:
    2009 HV58                a,e,i = 2.04, 0.61, 44                  q = 0.7963
    Date    TT    R. A. (2000) Decl.     Delta      r     Elong.  Phase     V
    2009 04 19    17 55.99   +24 27.3    0.706    1.409   109.8    42.1    21.1
    2009 04 24    17 40.39   +22 44.8    0.692    1.455   116.7    38.1    21.0
    2009 04 29    17 23.33   +20 42.0    0.684    1.500   123.9    33.9    21.0
    2009 05 04    17 05.25   +18 18.1    0.681    1.545   131.3    29.4    20.9
    2009 05 09    16 46.75   +15 34.6    0.686    1.589   138.5    24.9    20.8
    2009 05 14    16 28.45   +12 35.9    0.699    1.633   144.9    20.8    20.8
    2009 05 19    16 11.00   +09 28.5    0.721    1.676   150.0    17.6    20.8
    2009 05 24    15 54.90   +06 19.3    0.754    1.718   152.9    15.6    20.9
    2009 05 29    15 40.53   +03 14.8    0.795    1.760   153.0    15.1    21.1
    2009 06 03    15 28.10   +00 19.9    0.846    1.801   150.8    15.9    21.3
    2009 06 08    15 17.64   -02 22.3    0.905    1.841   147.0    17.5    21.5
    
    Timothy B. Spahr             (C) Copyright 2009 MPC           M.P.E.C. 2009-H59
    

    Read MPEC 2009-H58 Read MPEC 2009-H60


    MPEC number:

    Enter an MPEC number in one of the following forms:

    • 1997-B01 (the full form)
    • J97B01 (the packed version of the full form)
    • B01 (the abbreviated form)